• In Uzbekistan
  • List of Countries
  • For 7 days
  • Water Temperature
  • Satellite Maps
  • Weather Map
  • Weather Widgets
  • user-avatar
    Login

    Hourly Weather Copenhagen

    Today, 13 December, Wednesday

    Time Temperature Precipitation Wind Pressure Humidity
    00:00 0°C° 0 mm 8 mps 753 mmHg 80%
    01:00 0°C° 0 mm 8 mps 753 mmHg 80%
    02:00 0°C° 0 mm 9 mps 753 mmHg 81%
    03:00 0°C° 0 mm 9 mps 753 mmHg 83%
    04:00 0°C° 0 mm 10 mps 753 mmHg 84%
    05:00 0°C° 0 mm 9 mps 753 mmHg 84%
    06:00 -1°C° 0 mm 9 mps 753 mmHg 84%
    07:00 -2°C° 0 mm 7 mps 753 mmHg 85%
    08:00 -1°C° 0 mm 8 mps 753 mmHg 85%
    09:00 -1°C° 0 mm 8 mps 752 mmHg 85%
    10:00 -1°C° 0 mm 9 mps 752 mmHg 84%
    11:00 -1°C° 0 mm 9 mps 751 mmHg 84%
    12:00 -2°C° 0 mm 10 mps 751 mmHg 84%
    13:00 -2°C° 0 mm 10 mps 749 mmHg 82%
    14:00 -2°C° 0.3 mm 10 mps 748 mmHg 83%
    15:00 0°C° 0.3 mm 10 mps 747 mmHg 84%
    16:00 0°C° 0.3 mm 10 mps 747 mmHg 84%
    17:00 0°C° 0.7 mm 10 mps 746 mmHg 85%
    18:00 0°C° 0.7 mm 10 mps 745 mmHg 86%
    19:00 0°C° 0.7 mm 10 mps 744 mmHg 86%
    20:00 0°C° 0.5 mm 10 mps 743 mmHg 87%
    21:00 0°C° 0.5 mm 9 mps 742 mmHg 88%
    22:00 0°C° 0.5 mm 9 mps 741 mmHg 89%
    23:00 0°C° 0.2 mm 8 mps 740 mmHg 91%

    Tomorrow, 14 December, Thursday

    Time Temperature Precipitation Wind Pressure Humidity
    00:00 0°C° 0.2 mm 8 mps 739 mmHg 92%
    01:00 0°C° 0.2 mm 7 mps 738 mmHg 93%
    02:00 0°C° 0.2 mm 7 mps 737 mmHg 93%
    03:00 0°C° 0.2 mm 7 mps 736 mmHg 93%
    04:00 0°C° 0.2 mm 8 mps 735 mmHg 93%
    05:00 0°C° 0.9 mm 8 mps 734 mmHg 92%
    06:00 +2°C° 0.9 mm 7 mps 734 mmHg 92%
    07:00 +2°C° 0.9 mm 7 mps 733 mmHg 92%
    08:00 +1°C° 0.3 mm 8 mps 733 mmHg 88%
    09:00 +1°C° 0.3 mm 8 mps 734 mmHg 85%
    10:00 +1°C° 0.3 mm 9 mps 734 mmHg 81%
    11:00 +1°C° 0 mm 9 mps 735 mmHg 80%
    12:00 +1°C° 0 mm 9 mps 735 mmHg 78%
    13:00 +1°C° 0 mm 8 mps 736 mmHg 76%
    14:00 +1°C° 0 mm 8 mps 736 mmHg 76%
    15:00 +1°C° 0 mm 8 mps 736 mmHg 77%
    16:00 0°C° 0 mm 8 mps 737 mmHg 77%
    17:00 0°C° 0 mm 8 mps 737 mmHg 76%
    18:00 0°C° 0 mm 8 mps 737 mmHg 76%
    19:00 0°C° 0 mm 8 mps 737 mmHg 75%
    20:00 0°C° 0.1 mm 8 mps 737 mmHg 76%
    21:00 0°C° 0.1 mm 8 mps 737 mmHg 78%
    22:00 0°C° 0.1 mm 8 mps 737 mmHg 79%
    23:00 0°C° 0 mm 8 mps 737 mmHg 81%

    Day after tomorrow, 15 December, Friday

    Time Temperature Precipitation Wind Pressure Humidity
    00:00 0°C° 0 mm 8 mps 737 mmHg 83%
    01:00 0°C° 0 mm 8 mps 736 mmHg 85%
    02:00 0°C° 0.2 mm 9 mps 736 mmHg 83%
    03:00 0°C° 0.2 mm 9 mps 736 mmHg 82%
    04:00 +1°C° 0.2 mm 10 mps 736 mmHg 81%
    05:00 +1°C° 0.8 mm 10 mps 736 mmHg 81%
    06:00 +1°C° 0.8 mm 11 mps 736 mmHg 82%
    07:00 +1°C° 0.8 mm 11 mps 736 mmHg 82%
    08:00 +1°C° 0.9 mm 11 mps 736 mmHg 83%
    09:00 +1°C° 0.9 mm 10 mps 737 mmHg 83%
    10:00 +1°C° 0.9 mm 10 mps 737 mmHg 84%
    11:00 +1°C° 0.5 mm 10 mps 737 mmHg 83%
    12:00 +1°C° 0.5 mm 10 mps 737 mmHg 82%
    13:00 +1°C° 0.5 mm 10 mps 737 mmHg 81%
    14:00 +1°C° 0.1 mm 9 mps 738 mmHg 81%
    15:00 +1°C° 0.1 mm 9 mps 738 mmHg 81%
    16:00 +1°C° 0.1 mm 8 mps 739 mmHg 82%
    17:00 +1°C° 0 mm 8 mps 739 mmHg 82%
    18:00 0°C° 0 mm 7 mps 740 mmHg 83%
    19:00 0°C° 0 mm 7 mps 741 mmHg 84%
    20:00 +1°C° 0 mm 6 mps 741 mmHg 84%
    21:00 +1°C° 0 mm 6 mps 742 mmHg 84%
    22:00 +1°C° 0 mm 6 mps 742 mmHg 84%
    23:00 +1°C° 0.1 mm 6 mps 743 mmHg 83%

    16 December, Saturday

    Time Temperature Precipitation Wind Pressure Humidity
    00:00 +1°C° 0.1 mm 6 mps 743 mmHg 83%
    01:00 -1°C° 0.1 mm 6 mps 743 mmHg 82%
    02:00 0°C° 0.1 mm 5 mps 744 mmHg 83%
    03:00 0°C° 0.1 mm 5 mps 744 mmHg 83%
    04:00 0°C° 0.1 mm 5 mps 744 mmHg 83%
    05:00 0°C° 0.1 mm 5 mps 744 mmHg 84%
    06:00 0°C° 0.1 mm 5 mps 745 mmHg 84%
    07:00 0°C° 0.1 mm 5 mps 745 mmHg 85%
    08:00 0°C° 0.2 mm 5 mps 745 mmHg 86%
    09:00 0°C° 0.2 mm 5 mps 746 mmHg 87%
    10:00 0°C° 0.2 mm 5 mps 747 mmHg 88%
    11:00 0°C° 0.2 mm 5 mps 747 mmHg 87%
    12:00 +1°C° 0.2 mm 6 mps 748 mmHg 86%
    13:00 +1°C° 0.2 mm 6 mps 748 mmHg 85%
    14:00 +1°C° 0.2 mm 6 mps 749 mmHg 86%
    15:00 -1°C° 0.2 mm 7 mps 750 mmHg 87%
    16:00 -1°C° 0.2 mm 7 mps 751 mmHg 87%
    17:00 -1°C° 0 mm 7 mps 751 mmHg 87%
    18:00 -1°C° 0 mm 6 mps 752 mmHg 87%
    19:00 -1°C° 0 mm 6 mps 753 mmHg 87%
    20:00 0°C° 0 mm 5 mps 754 mmHg 87%
    21:00 0°C° 0 mm 5 mps 755 mmHg 87%
    22:00 0°C° 0 mm 5 mps 756 mmHg 86%
    23:00 -1°C° 0 mm 4 mps 757 mmHg 86%

    17 December, Sunday

    Time Temperature Precipitation Wind Pressure Humidity
    00:00 -1°C° 0 mm 4 mps 757 mmHg 86%
    01:00 -1°C° 0 mm 4 mps 758 mmHg 85%
    02:00 -2°C° 0 mm 4 mps 758 mmHg 85%
    03:00 -2°C° 0 mm 4 mps 759 mmHg 84%
    04:00 -2°C° 0 mm 4 mps 759 mmHg 84%
    05:00 -1°C° 0 mm 3 mps 760 mmHg 84%
    06:00 -1°C° 0 mm 3 mps 760 mmHg 83%
    07:00 -1°C° 0 mm 3 mps 761 mmHg 83%
    08:00 -1°C° 0 mm 3 mps 761 mmHg 82%
    09:00 -1°C° 0 mm 2 mps 762 mmHg 81%
    10:00 -1°C° 0 mm 2 mps 763 mmHg 80%
    11:00 +1°C° 0 mm 2 mps 763 mmHg 79%
    12:00 +1°C° 0 mm 2 mps 763 mmHg 77%
    13:00 +2°C° 0 mm 2 mps 764 mmHg 76%
    14:00 +1°C° 0 mm 2 mps 764 mmHg 78%
    15:00 +1°C° 0 mm 2 mps 764 mmHg 79%
    16:00 -1°C° 0 mm 2 mps 764 mmHg 81%
    17:00 -1°C° 0 mm 3 mps 765 mmHg 82%
    18:00 -1°C° 0 mm 3 mps 765 mmHg 83%
    19:00 -1°C° 0 mm 3 mps 765 mmHg 84%
    20:00 -1°C° 0 mm 3 mps 765 mmHg 84%
    21:00 -1°C° 0 mm 3 mps 765 mmHg 84%
    22:00 -1°C° 0 mm 3 mps 765 mmHg 84%
    23:00 -1°C° 0 mm 4 mps 765 mmHg 85%

    18 December, Monday

    Time Temperature Precipitation Wind Pressure Humidity
    00:00 -1°C° 0 mm 4 mps 765 mmHg 86%
    01:00 -1°C° 0 mm 4 mps 765 mmHg 88%
    02:00 -1°C° 0.1 mm 4 mps 764 mmHg 88%
    03:00 0°C° 0.1 mm 4 mps 764 mmHg 88%
    04:00 0°C° 0.1 mm 5 mps 763 mmHg 88%
    05:00 0°C° 0.3 mm 5 mps 762 mmHg 88%
    06:00 -1°C° 0.3 mm 6 mps 762 mmHg 88%
    07:00 -1°C° 0.3 mm 6 mps 761 mmHg 89%
    08:00 -1°C° 0.1 mm 6 mps 761 mmHg 88%
    09:00 -1°C° 0.1 mm 7 mps 761 mmHg 88%
    10:00 -1°C° 0.1 mm 7 mps 761 mmHg 88%
    11:00 -1°C° 0 mm 7 mps 761 mmHg 89%
    12:00 -1°C° 0 mm 6 mps 761 mmHg 89%
    13:00 -1°C° 0 mm 6 mps 761 mmHg 90%
    14:00 0°C° 0 mm 5 mps 762 mmHg 91%
    15:00 0°C° 0 mm 5 mps 762 mmHg 92%
    16:00 0°C° 0 mm 4 mps 763 mmHg 92%
    17:00 0°C° 0 mm 4 mps 763 mmHg 92%
    18:00 +1°C° 0 mm 3 mps 764 mmHg 92%
    19:00 +1°C° 0 mm 3 mps 765 mmHg 92%
    20:00 +1°C° 0 mm 3 mps 765 mmHg 92%
    21:00 +1°C° 0 mm 3 mps 766 mmHg 92%
    22:00 +2°C° 0 mm 2 mps 767 mmHg 92%
    23:00 +2°C° 0 mm 2 mps 767 mmHg 92%
    Show more